sat.trackr.live / text

‹ back to catalog

JILIN-1 10

NORAD 43946 · 2019-005E

PAYLOAD ACTIVE UNKNOWN

§ Identity

Operator
Country
PRC
Launch date
2019-01-21
Launch site
JSC
Launch vehicle
Mass (kg)
RCS (m²)

External: N2YO · Heavens-Above · Gunter

§ Orbital elements

Epoch: 2026-05-25T04:04:40.319040Z

Period
94.40 min
Inclination
97.4766°
Eccentricity
0.0008066
Mean motion
15.25430583 rev/d
Perigee alt
484.0 km
Apogee alt
495.0 km
Semi-major
6,867.6 km
B*
2.1970e-4
RAAN
243.9815°
Arg perigee
11.7171°
Mean anomaly
348.4253°
Rev number
40,580

§ Raw data

JILIN-1 101 43946U 19005E   26145.16991110  .00005484  00000+0  21970-3 0  99992 43946  97.4766 243.9815 0008066  11.7171 348.4253 15.25430583405809

JSON: /api/v1/satellites/43946 · /tle

For live sub-satellite position, see the globe view (requires WebGL).

§ Visibility from observer

Set your observer location to see the next 7 days of passes ≥ 10°. The values pass through the URL so the page stays shareable.

No JS? Fill the form by hand. The geolocation button needs JavaScript.

§ Radio — SatNOGS DB

ModeDescriptionDownlinkUplink
FM S-band telemetry 2.245 GHz

1 transmitter · refreshed weekly from db.satnogs.org